This is the latest recevied weather packets stored in our database for station/object WX8ASH-13. If no packets are shown the sender has not sent any weather packets the latest 10 day(s).
| Time | Temp. | Humidity | Pressure | Rain* | Wind** | Luminosity | Snow |
|---|---|---|---|---|---|---|---|
| 1778077820 | 8.89° C | 86% | 1017.8 hPa | 0.76 mm | - | - | - |
| 1778077518 | 8.89° C | 87% | 1017.8 hPa | 0.76 mm | - | - | - |
| 1778077219 | 8.33° C | 85% | 1017.9 hPa | 0 mm | - | - | - |
| 1778076922 | 8.33° C | 88% | 1017.9 hPa | 0 mm | - | - | - |
| 1778076618 | 8.33° C | 89% | 1017.9 hPa | 0 mm | - | - | - |
| 1778076319 | 8.33° C | 93% | 1017.7 hPa | 0 mm | - | - | - |
| 1778076019 | 7.78° C | 95% | 1017.7 hPa | 0 mm | - | - | - |
| 1778075718 | 7.78° C | 95% | 1017.7 hPa | 0 mm | - | - | - |
| 1778075419 | 7.78° C | 95% | 1017.7 hPa | 0 mm | - | - | - |
| 1778075117 | 7.78° C | 96% | 1017.8 hPa | 0 mm | - | - | - |
| 1778074818 | 7.22° C | 97% | 1017.8 hPa | 0 mm | - | - | - |
| 1778074520 | 7.22° C | 96% | 1017.8 hPa | 0 mm | - | - | - |
| 1778074217 | 7.22° C | 97% | 1017.7 hPa | 0 mm | - | - | - |
| 1778073918 | 7.22° C | 97% | 1017.7 hPa | 0 mm | - | - | - |
| 1778073619 | 7.22° C | 97% | 1017.7 hPa | 0 mm | - | - | - |
| 1778073316 | 7.22° C | 98% | 1017.7 hPa | 0 mm | - | - | - |
| 1778073019 | 7.22° C | 98% | 1017.5 hPa | 0 mm | - | - | - |
| 1778072716 | 7.22° C | 98% | 1017.4 hPa | 0 mm | - | - | - |
| 1778072416 | 6.67° C | 98% | 1017.3 hPa | 0 mm | - | - | - |
| 1778072118 | 6.67° C | 98% | 1017.2 hPa | 0 mm | - | - | - |
| 1778071815 | 6.67° C | 98% | 1017 hPa | 0 mm | - | - | - |
| 1778071518 | 6.67° C | 98% | 1017.3 hPa | 0 mm | - | - | - |
| 1778071215 | 6.67° C | 98% | 1017.2 hPa | 0 mm | - | - | - |
| 1778070916 | 6.67° C | 99% | 1016.9 hPa | 0 mm | - | - | - |
| 1778070618 | 6.67° C | 99% | 1016.8 hPa | 0 mm | - | - | - |
* Rain latest hour (hover to see other rain measurements)
** Current wind speed in m/s (hover to see current wind gust speed)